エンケ彗星

2P/Encke (2007)

English version
Home page
Updated on October 12, 2008

---------------------------------------------------------------------

・ プロフィール

・ 写真集

・ 軌道要素

The following orbital elements are taken from MPC 51822:

Epoch 2007 Apr. 10.0 TT = JDT 2454200.5
T 2007 Apr. 19.3117 TT                                  MPC
q   0.339269             (2000.0)            P               Q
n   0.2983680      Peri.  186.5230      -0.9450308      -0.3150640
a   2.218032       Node   334.5714      +0.3084527      -0.7702153
e   0.847040       Incl.   11.7543      +0.1085068      -0.5545296
P   3.30
From 896 observations 1989-2003.  Nongravitational parameters A1 = -0.02, A2
     = -0.0009.

・ 星図

・ 光度変化

        H = 14.2  G = 0.15                [    ,-100]  (              〜2007年 1月 9日)
        m1 =  9.8 + 5 logΔ + 25   log r  [-100, -45]  (2007年 1月 9日〜2007年 3月 5日)
        m1 = 10.3 + 5 logΔ +  7.0 log r  [ -45,  20]  (2007年 3月 5日〜2007年 5月 9日)
        m1 = 12.3 + 5 logΔ + 15.7 log r  [  20, 100]  (2007年 5月 9日〜2007年 7月28日)
        H = 14.2  G = 0.15                [ 100,    ]  (2007年 7月28日〜              )

---------------------------------------------------------------------

軌道要素はMPCのEphemerides and Orbital Elementsに掲載されたものです。
星図は StellaNavigator Ver.2.0 for Windows (アストロアーツ 編著 / アスキー出版局刊) で作成したものです。
光度グラフはComet for Windowsで作成したものです。

---------------------------------------------------------------------

Copyright(C) Seiichi Yoshida (comet@aerith.net). All rights reserved.